Трентон

США     40°13′19″N   74°45′52″W
темп.,
°C
ветер,
м/с
пор.,
м/с
влажн.,
%
обл.,
%
осадки,
мм/ч
давл.,
гПа
погр.,
м
20 апреля, вт
вт2023:00+11юз36760 0.0 1012201
02:00+10юз26845 0.0 1013163
05:00+9юз38841 0.0 1013200
08:00+12зюз4127121 0.0 1014441
11:00+17з575083 0.0 10151087
14:00+19з594436 0.0 10152006
17:00+18зсз574838 0.0 10141350
20:00+15ссз1161100 0.0 101423
21 апреля, ср
ср2123:00+14юв2570100 0.0 1014218
02:00+13ю41366100 0.0 1013738
05:00+12ю414777 0.0 1010693
08:00+13ююз51473100 0.0 1009914
11:00+16ю6156859 0.1 10061326
14:00+20ююз91556100 0.9 10012392
17:00+7зсз8137918 3.6 10051074
20:00+5сз614615 3.6 10081352
22 апреля, чт
чт2223:00+3зсз614591 0.0 10101330
02:00+2зсз511675 0.0 10111181
05:000з612605 0.0 10121020
08:00+1з614525 0.0 10141276
11:00+6зсз81333100 0.0 10142637
14:00+9зсз81432100 0.0 10133174
17:00+10з7143699 0.0 10133123
20:00+7з5114613 0.0 10151477
23 апреля, пт
пт2323:00+5зсз511485 0.0 10171159
02:00+5з512545 0.0 1017825
05:00+4з615665 0.0 1016805
08:00+6з615590 0.0 1017800
11:00+11зсз711455 0.0 10171476
14:00+15зсз7123785 0.0 10162500
17:00+16зсз612395 0.0 10152484
20:00+12зсз39545 0.0 1016337
24 апреля, сб
сб2423:00+10з37631 0.0 1018205
02:00+8зсз38680 0.0 1018195
05:00+7з257237 0.0 1019117
08:00+10зсз25615 0.0 1019213
11:00+16з354286 0.0 10191571
14:00+18з3435100 0.0 10172014
17:00+18з3435100 0.0 10161926
20:00+15ю1149100 0.0 101515